192P/Shoemaker-Levy 1 (2007)

Japanese version
Home page
Updated on April 6, 2008

---------------------------------------------------------------------

* Profile

Designation 192P/2007 T3
Recovery Date October 12, 2007
Magnitude 18.2 mag
Recoverer R. H. McNaught (Siding Spring)

* Pictures

* Orbital Elements

                    Epoch = 2007 Dec.  6.0 TT
     T = 2007 Dec. 17.3371 TT         Peri. = 312.8443
     e = 0.773589                     Node  =  51.6501  2000.0
     q = 1.460069 AU                  Incl. =  24.5612
       a =  6.448748 AU    n = 0.0601854    P =  16.38 years

* Finding Charts

* Magnitudes Graph

        m1 = 9.0 + 5 log d + 25 log r(t - 50)

---------------------------------------------------------------------

The orbital elements are printed on IAUC 8879.
The charts are made with StellaNavigator Ver.8 (AstroArts).
The magnitudes graphs are made with Comet for Windows.

---------------------------------------------------------------------

Copyright(C) Seiichi Yoshida (comet@aerith.net). All rights reserved.